E23XBQ-1 Weather Reports


Display with metric or nautical units.
time (UTC)temp
F
wind
direction
speed
MPH
gust
MPH
rain 1hr
in
rain 24hr
in
rain mn
in
humidity
%
barometer
mb
20260504021713 71 0 0.0 0.0 0.00 0.00 0.00 87 714.0
20260504020648 71 0 0.0 0.0 0.00 0.00 0.00 87 714.0
20260504015624 71 0 0.0 0.0 0.00 0.00 0.00 87 714.0
20260504014600 71 0 0.0 0.0 0.00 0.00 0.00 87 714.0
20260504013535 71 0 0.0 0.0 0.00 0.00 0.00 87 714.0
20260504012510 71 0 0.0 0.0 0.00 0.00 0.00 87 714.0
20260504011446 71 0 0.0 0.0 0.00 0.00 0.00 87 714.0
20260504010421 71 0 0.0 0.0 0.00 0.00 0.00 87 714.0
20260504005356 71 0 0.0 0.0 0.00 0.00 0.00 87 714.0
20260504004330 71 0 0.0 0.0 0.00 0.00 0.00 87 714.0
20260504003308 71 0 0.0 0.0 0.00 0.00 0.00 87 714.0
20260504002242 71 0 0.0 0.0 0.00 0.00 0.00 87 714.0
20260504001217 71 0 0.0 0.0 0.00 0.00 0.00 87 714.0
20260504000151 71 0 0.0 0.0 0.00 0.00 0.00 87 714.0
20260503235122 71 0 0.0 0.0 0.00 0.00 0.00 87 714.0
20260503234047 71 0 0.0 0.0 0.00 0.00 0.00 87 714.0
20260503233027 71 0 0.0 0.0 0.00 0.00 0.00
20260503233023 71 0 0.0 0.0 0.00 0.00 0.00 87 714.0
20260503231957 71 0 0.0 0.0 0.00 0.00 0.00 87 714.0
20260503230932 71 0 0.0 0.0 0.00 0.00 0.00 87 714.0
20260503225908 71 0 0.0 0.0 0.00 0.00 0.00 87 714.0
20260503224843 71 0 0.0 0.0 0.00 0.00 0.00 87 714.0
20260503223818 71 0 0.0 0.0 0.00 0.00 0.00 87 714.0
20260503222753 71 0 0.0 0.0 0.00 0.00 0.00 87 714.0
20260503221727 71 0 0.0 0.0 0.00 0.00 0.00 87 714.0
20260503220656 71 0 0.0 0.0 0.00 0.00 0.00 87 714.0
20260503215625 71 0 0.0 0.0 0.00 0.00 0.00 87 714.0
20260503214558 71 0 0.0 0.0 0.00 0.00 0.00 87 714.0
20260503213533 71 0 0.0 0.0 0.00 0.00 0.00 87 714.0
20260503212509 71 0 0.0 0.0 0.00 0.00 0.00 87 714.0
20260503211443 71 0 0.0 0.0 0.00 0.00 0.00 87 714.0
20260503210418 71 0 0.0 0.0 0.00 0.00 0.00 87 714.0
20260503205352 71 0 0.0 0.0 0.00 0.00 0.00 87 714.0
20260503204326 71 0 0.0 0.0 0.00 0.00 0.00 87 714.0
20260503203301 71 0 0.0 0.0 0.00 0.00 0.00 87 714.0
20260503202234 71 0 0.0 0.0 0.00 0.00 0.00 87 714.0
20260503201209 71 0 0.0 0.0 0.00 0.00 0.00 87 714.0
20260503200144 71 0 0.0 0.0 0.00 0.00 0.00 87 714.0
20260503195120 71 0 0.0 0.0 0.00 0.00 0.00 87 714.0
20260503194053 71 0 0.0 0.0 0.00 0.00 0.00 87 714.0
20260503193027 71 0 0.0 0.0 0.00 0.00 0.00 87 714.0
20260503192001 71 0 0.0 0.0 0.00 0.00 0.00 87 714.0
20260503190936 71 0 0.0 0.0 0.00 0.00 0.00 87 714.0
20260503185910 71 0 0.0 0.0 0.00 0.00 0.00 87 714.0
20260503184844 71 0 0.0 0.0 0.00 0.00 0.00 87 714.0
20260503183818 71 0 0.0 0.0 0.00 0.00 0.00 87 714.0
20260503182753 71 0 0.0 0.0 0.00 0.00 0.00 87 714.0
20260503181728 71 0 0.0 0.0 0.00 0.00 0.00 87 714.0
20260503180702 71 0 0.0 0.0 0.00 0.00 0.00 87 714.0
20260503175635 71 0 0.0 0.0 0.00 0.00 0.00 87 714.0
20260503174608 71 0 0.0 0.0 0.00 0.00 0.00 87 714.0
20260503173541 71 0 0.0 0.0 0.00 0.00 0.00 87 714.0
20260503172515 71 0 0.0 0.0 0.00 0.00 0.00 87 714.0
20260503171448 71 0 0.0 0.0 0.00 0.00 0.00 87 714.0
20260503170420 71 0 0.0 0.0 0.00 0.00 0.00 87 714.0
20260503160147 71 0 0.0 0.0 0.00 0.00 0.00 87 714.0
20260503150944 71 0 0.0 0.0 0.00 0.00 0.00 87 714.0
20260503150941 71 0 0.0 0.0 0.00 0.00 0.00 87 714.0
20260503130427 71 0 0.0 0.0 0.00 0.00 0.00 87 714.0
20260503120154 71 0 0.0 0.0 0.00 0.00 0.00 87 714.0
20260503090445 99 0 0.0 0.0 0.00 0.00 0.00 38 967.0
20260503081241 97 0 0.0 0.0 0.00 0.00 0.00 39 968.0
20260503080216 96 0 0.0 0.0 0.00 0.00 0.00 41 968.0
20260503072037 99 0 0.0 0.0 0.00 0.00 0.00 37 969.0
20260503071013 101 0 0.0 0.0 0.00 0.00 0.00 31 969.0
20260503054654 98 0 0.0 0.0 0.00 0.00 0.00 36 971.0
20260503053629 97 0 0.0 0.0 0.00 0.00 0.00 39 971.0
20260503052634 94 0 0.0 0.0 0.00 0.00 0.00 40 971.0
20260503052603 94 0 0.0 0.0 0.00 0.00 0.00 40 971.0
20260503052036 95 0 0.0 0.0 0.00 0.00 0.00 40 971.0
20260503051010 95 0 0.0 0.0 0.00 0.00 0.00 41 972.0
20260503050620 94 0 0.0 0.0 0.00 0.00 0.00 39 972.0
20260503050618 94 0 0.0 0.0 0.00 0.00 0.00 39 972.0
20260503050510 95 0 0.0 0.0 0.00 0.00 0.00 39 972.0
20260503045446 96 0 0.0 0.0 0.00 0.00 0.00 39 972.0
20260503045444 96 0 0.0 0.0 0.00 0.00 0.00 39 972.0
20260503044421 96 0 0.0 0.0 0.00 0.00 0.00 38 972.0
20260503043354 96 0 0.0 0.0 0.00 0.00 0.00 40 972.0
20260503042330 96 0 0.0 0.0 0.00 0.00 0.00 39 972.0
20260503041305 94 0 0.0 0.0 0.00 0.00 0.00 43 973.0
20260503040241 96 0 0.0 0.0 0.00 0.00 0.00 40 973.0
20260503035216 96 0 0.0 0.0 0.00 0.00 0.00 41 973.0
20260503034152 95 0 0.0 0.0 0.00 0.00 0.00 39 973.0
20260503033128 96 0 0.0 0.0 0.00 0.00 0.00 42 973.0
20260503032103 95 0 0.0 0.0 0.00 0.00 0.00 42 973.0
20260503031038 94 0 0.0 0.0 0.00 0.00 0.00 44 973.0
20260503030015 93 0 0.0 0.0 0.00 0.00 0.00 47 973.0
20260503030013 93 0 0.0 0.0 0.00 0.00 0.00 47 973.0
20260503024949 92 0 0.0 0.0 0.00 0.00 0.00 52 973.0
20260503023924 91 0 0.0 0.0 0.00 0.00 0.00 49 974.0
20260503022900 89 0 0.0 0.0 0.00 0.00 0.00 59 974.0